Time,TemperatureF,DewpointF,PressureIn,WindDirection,WindDirectionDegrees,WindSpeedMPH,WindSpeedGustMPH,Humidity,HourlyPrecipIn,Conditions,Clouds,dailyrainin,SoftwareType,DateUTC
2013-01-30 00:02:00,51.0,50.0,29.37,SSE,167,4.0,-999.0,97,-99.99,,,-99.99,,2013-01-30 06:02:00,
2013-01-30 00:11:00,51.0,50.0,29.37,SSE,167,4.0,-999.0,97,-99.99,,,-99.99,,2013-01-30 06:11:00,
2013-01-30 00:21:00,51.0,50.0,29.34,SSE,164,4.0,-999.0,97,-99.99,,,-99.99,,2013-01-30 06:21:00,
2013-01-30 00:32:00,51.0,50.0,29.34,SE,142,7.0,-999.0,97,-99.99,,,-99.99,,2013-01-30 06:32:00,
2013-01-30 00:41:00,51.0,50.0,29.34,SE,142,7.0,-999.0,97,-99.99,,,-99.99,,2013-01-30 06:41:00,
2013-01-30 00:51:00,51.0,50.0,29.34,SSE,154,6.0,-999.0,97,-99.99,,,-99.99,,2013-01-30 06:51:00,
2013-01-30 01:02:00,51.0,50.0,29.33,SE,131,5.0,-999.0,97,-99.99,,,-99.99,,2013-01-30 07:02:00,
2013-01-30 01:11:00,51.0,50.0,29.33,SE,131,5.0,-999.0,97,-99.99,,,-99.99,,2013-01-30 07:11:00,
2013-01-30 01:21:00,51.0,50.0,29.33,SSE,156,5.0,-999.0,97,-99.99,,,-99.99,,2013-01-30 07:21:00,
2013-01-30 01:32:00,51.0,50.0,29.34,SSE,151,4.0,-999.0,97,-99.99,,,-99.99,,2013-01-30 07:32:00,
2013-01-30 01:41:00,51.0,50.0,29.34,SSE,151,4.0,-999.0,97,-99.99,,,-99.99,,2013-01-30 07:41:00,
2013-01-30 01:52:00,51.0,50.0,29.33,SSE,158,5.0,-999.0,97,-99.99,,,-99.99,,2013-01-30 07:52:00,
2013-01-30 02:01:00,50.0,49.0,29.34,SSE,154,6.0,-999.0,97,-99.99,,,-99.99,,2013-01-30 08:01:00,
2013-01-30 02:11:00,50.0,49.0,29.34,SSE,154,6.0,-999.0,97,-99.99,,,-99.99,,2013-01-30 08:11:00,
2013-01-30 02:21:00,50.0,49.0,29.32,SSE,164,7.0,-999.0,97,-99.99,,,-99.99,,2013-01-30 08:21:00,
2013-01-30 02:32:00,50.0,49.0,29.32,SSW,211,6.0,-999.0,97,-99.99,,,-99.99,,2013-01-30 08:32:00,
2013-01-30 02:42:00,50.0,49.0,29.32,SSW,211,6.0,-999.0,97,-99.99,,,-99.99,,2013-01-30 08:42:00,
2013-01-30 02:52:00,50.0,49.0,29.34,WSW,240,6.0,-999.0,97,-99.99,,,-99.99,,2013-01-30 08:52:00,
2013-01-30 03:01:00,50.0,49.0,29.38,West,259,7.0,-999.0,97,-99.99,,,-99.99,,2013-01-30 09:01:00,
2013-01-30 03:11:00,50.0,49.0,29.38,West,259,7.0,-999.0,97,-99.99,,,-99.99,,2013-01-30 09:11:00,
2013-01-30 03:21:00,50.0,49.0,29.40,West,270,7.0,-999.0,97,-99.99,,,-99.99,,2013-01-30 09:21:00,
2013-01-30 03:32:00,50.0,49.0,29.38,WSW,258,5.0,-999.0,97,-99.99,,,-99.99,,2013-01-30 09:32:00,
2013-01-30 03:41:00,50.0,49.0,29.38,WSW,258,5.0,-999.0,97,-99.99,,,-99.99,,2013-01-30 09:41:00,
2013-01-30 03:51:00,47.0,46.0,29.36,NNW,330,9.0,-999.0,96,-99.99,,,-99.99,,2013-01-30 09:51:00,
2013-01-30 04:01:00,44.0,43.0,29.32,North,11,5.0,-999.0,96,-99.99,,,-99.99,,2013-01-30 10:01:00,
2013-01-30 04:11:00,44.0,43.0,29.32,North,11,5.0,-999.0,96,-99.99,,,-99.99,,2013-01-30 10:11:00,
2013-01-30 04:21:00,44.0,43.0,29.28,NNE,12,1.0,-999.0,97,-99.99,,,-99.99,,2013-01-30 10:21:00,
2013-01-30 04:32:00,45.0,44.0,29.26,NNE,12,0.0,-999.0,97,-99.99,,,-99.99,,2013-01-30 10:32:00,
2013-01-30 04:41:00,45.0,44.0,29.26,NNE,12,0.0,-999.0,97,-99.99,,,-99.99,,2013-01-30 10:41:00,
2013-01-30 04:52:00,45.0,44.0,29.27,North,11,0.0,-999.0,97,-99.99,,,-99.99,,2013-01-30 10:52:00,
2013-01-30 05:02:00,45.0,44.0,29.28,NNE,12,1.0,-999.0,97,-99.99,,,-99.99,,2013-01-30 11:02:00,
2013-01-30 05:11:00,45.0,44.0,29.28,NNE,12,1.0,-999.0,97,-99.99,,,-99.99,,2013-01-30 11:11:00,
2013-01-30 05:22:00,45.0,44.0,29.29,West,268,1.0,-999.0,97,-99.99,,,-99.99,,2013-01-30 11:22:00,
2013-01-30 05:32:00,45.0,44.0,29.28,West,268,2.0,-999.0,97,-99.99,,,-99.99,,2013-01-30 11:32:00,
2013-01-30 05:42:00,45.0,44.0,29.28,West,268,2.0,-999.0,97,-99.99,,,-99.99,,2013-01-30 11:42:00,
2013-01-30 05:52:00,46.0,45.0,29.28,SW,214,3.0,-999.0,97,-99.99,,,-99.99,,2013-01-30 11:52:00,
2013-01-30 06:02:00,47.0,46.0,29.28,SSW,197,4.0,-999.0,97,-99.99,,,-99.99,,2013-01-30 12:02:00,
2013-01-30 06:12:00,47.0,46.0,29.28,SSW,197,4.0,-999.0,97,-99.99,,,-99.99,,2013-01-30 12:12:00,
2013-01-30 06:22:00,49.0,48.0,29.28,SW,221,9.0,-999.0,97,-99.99,,,-99.99,,2013-01-30 12:22:00,
2013-01-30 06:32:00,50.0,49.0,29.27,SSW,210,10.0,-999.0,98,-99.99,,,-99.99,,2013-01-30 12:32:00,
2013-01-30 06:42:00,50.0,49.0,29.27,SSW,210,10.0,-999.0,98,-99.99,,,-99.99,,2013-01-30 12:42:00,
2013-01-30 07:02:00,50.0,49.0,29.28,South,173,10.0,-999.0,97,-99.99,,,-99.99,,2013-01-30 13:02:00,
2013-01-30 07:12:00,50.0,49.0,29.28,South,173,10.0,-999.0,97,-99.99,,,-99.99,,2013-01-30 13:12:00,
2013-01-30 07:23:00,50.0,49.0,29.26,South,187,11.0,-999.0,96,-99.99,,,-99.99,,2013-01-30 13:23:00,
2013-01-30 07:32:00,50.0,49.0,29.26,SSW,202,12.0,-999.0,95,-99.99,,,-99.99,,2013-01-30 13:32:00,
2013-01-30 07:42:00,50.0,49.0,29.26,SSW,202,12.0,-999.0,95,-99.99,,,-99.99,,2013-01-30 13:42:00,
2013-01-30 07:53:00,51.0,49.0,29.26,SW,220,12.0,-999.0,94,-99.99,,,-99.99,,2013-01-30 13:53:00,
2013-01-30 08:02:00,50.0,48.0,29.25,SSW,205,9.0,-999.0,94,-99.99,,,-99.99,,2013-01-30 14:02:00,
2013-01-30 08:12:00,50.0,48.0,29.25,SSW,205,9.0,-999.0,94,-99.99,,,-99.99,,2013-01-30 14:12:00,
2013-01-30 08:22:00,51.0,49.0,29.25,SSW,195,11.0,-999.0,93,-99.99,,,-99.99,,2013-01-30 14:22:00,
2013-01-30 08:32:00,45.0,42.0,29.28,WNW,283,17.0,-999.0,89,-99.99,,,-99.99,,2013-01-30 14:32:00,
2013-01-30 08:42:00,45.0,42.0,29.28,WNW,283,17.0,-999.0,89,-99.99,,,-99.99,,2013-01-30 14:42:00,
2013-01-30 08:53:00,42.0,39.0,29.29,West,266,16.0,-999.0,90,-99.99,,,-99.99,,2013-01-30 14:53:00,
2013-01-30 09:03:00,40.0,37.0,29.31,WNW,282,17.0,-999.0,90,-99.99,,,-99.99,,2013-01-30 15:03:00,
2013-01-30 09:12:00,40.0,37.0,29.31,WNW,282,17.0,-999.0,90,-99.99,,,-99.99,,2013-01-30 15:12:00,
2013-01-30 09:23:00,39.0,37.0,29.31,WNW,301,14.0,-999.0,91,-99.99,,,-99.99,,2013-01-30 15:23:00,
2013-01-30 09:33:00,39.0,37.0,29.32,West,272,13.0,-999.0,91,-99.99,,,-99.99,,2013-01-30 15:33:00,
2013-01-30 09:43:00,39.0,37.0,29.32,West,272,13.0,-999.0,91,-99.99,,,-99.99,,2013-01-30 15:43:00,
2013-01-30 09:53:00,38.0,35.0,29.32,West,280,12.0,-999.0,90,-99.99,,,-99.99,,2013-01-30 15:53:00,
2013-01-30 10:03:00,38.0,35.0,29.32,West,269,15.0,-999.0,88,-99.99,,,-99.99,,2013-01-30 16:03:00,
2013-01-30 10:12:00,38.0,35.0,29.32,West,269,15.0,-999.0,88,-99.99,,,-99.99,,2013-01-30 16:12:00,
2013-01-30 10:23:00,39.0,36.0,29.33,WNW,293,12.0,-999.0,89,-99.99,,,-99.99,,2013-01-30 16:23:00,
2013-01-30 10:32:00,39.0,35.0,29.33,West,271,15.0,-999.0,87,-99.99,,,-99.99,,2013-01-30 16:32:00,
2013-01-30 10:42:00,39.0,35.0,29.33,West,271,15.0,-999.0,87,-99.99,,,-99.99,,2013-01-30 16:42:00,
2013-01-30 10:52:00,39.0,35.0,29.33,West,271,15.0,-999.0,87,-99.99,,,-99.99,,2013-01-30 16:52:00,
2013-01-30 11:02:00,38.0,34.0,29.34,West,269,16.0,-999.0,85,-99.99,,,-99.99,,2013-01-30 17:02:00,
2013-01-30 11:12:00,38.0,34.0,29.34,West,269,16.0,-999.0,85,-99.99,,,-99.99,,2013-01-30 17:12:00,
2013-01-30 11:22:00,38.0,34.0,29.35,West,281,14.0,-999.0,86,-99.99,,,-99.99,,2013-01-30 17:22:00,
2013-01-30 11:32:00,38.0,34.0,29.35,West,274,14.0,-999.0,86,-99.99,,,-99.99,,2013-01-30 17:32:00,
2013-01-30 11:42:00,38.0,34.0,29.35,West,274,14.0,-999.0,86,-99.99,,,-99.99,,2013-01-30 17:42:00,
2013-01-30 11:53:00,37.0,33.0,29.35,West,269,12.0,-999.0,86,-99.99,,,-99.99,,2013-01-30 17:53:00,
2013-01-30 12:02:00,36.0,33.0,29.35,WNW,301,13.0,-999.0,87,-99.99,,,-99.99,,2013-01-30 18:02:00,
2013-01-30 12:12:00,36.0,33.0,29.35,WNW,301,13.0,-999.0,87,-99.99,,,-99.99,,2013-01-30 18:12:00,
2013-01-30 12:22:00,35.0,32.0,29.34,WNW,285,14.0,-999.0,88,-99.99,,,-99.99,,2013-01-30 18:22:00,
2013-01-30 12:33:00,35.0,32.0,29.35,WNW,301,14.0,-999.0,89,-99.99,,,-99.99,,2013-01-30 18:33:00,
2013-01-30 12:42:00,35.0,32.0,29.35,WNW,301,14.0,-999.0,89,-99.99,,,-99.99,,2013-01-30 18:42:00,
2013-01-30 12:53:00,34.0,31.0,29.35,WNW,284,15.0,-999.0,89,-99.99,,,-99.99,,2013-01-30 18:53:00,
2013-01-30 13:02:00,33.0,30.0,29.36,WNW,293,16.0,-999.0,90,-99.99,,,-99.99,,2013-01-30 19:02:00,
2013-01-30 13:12:00,33.0,30.0,29.36,WNW,293,16.0,-999.0,90,-99.99,,,-99.99,,2013-01-30 19:12:00,
2013-01-30 13:22:00,33.0,30.0,29.36,WNW,298,16.0,-999.0,89,-99.99,,,-99.99,,2013-01-30 19:22:00,
2013-01-30 13:32:00,32.0,29.0,29.37,NW,307,14.0,-999.0,89,-99.99,,,-99.99,,2013-01-30 19:32:00,
2013-01-30 13:43:00,32.0,29.0,29.37,NW,307,14.0,-999.0,89,-99.99,,,-99.99,,2013-01-30 19:43:00,
2013-01-30 13:53:00,32.0,29.0,29.38,WNW,299,17.0,-999.0,87,-99.99,,,-99.99,,2013-01-30 19:53:00,
2013-01-30 14:03:00,31.0,28.0,29.38,WNW,298,17.0,-999.0,88,-99.99,,,-99.99,,2013-01-30 20:03:00,
2013-01-30 14:12:00,31.0,28.0,29.38,WNW,298,17.0,-999.0,88,-99.99,,,-99.99,,2013-01-30 20:12:00,
2013-01-30 14:22:00,31.0,28.0,29.39,West,265,15.0,-999.0,88,-99.99,,,-99.99,,2013-01-30 20:22:00,
2013-01-30 14:33:00,31.0,29.0,29.41,WNW,285,18.0,-999.0,92,-99.99,,,-99.99,,2013-01-30 20:33:00,
2013-01-30 14:42:00,31.0,29.0,29.41,WNW,285,18.0,-999.0,92,-99.99,,,-99.99,,2013-01-30 20:42:00,
2013-01-30 14:53:00,31.0,26.0,29.43,WNW,283,20.0,-999.0,83,-99.99,,,-99.99,,2013-01-30 20:53:00,
2013-01-30 15:03:00,30.0,25.0,29.43,WNW,297,20.0,-999.0,82,-99.99,,,-99.99,,2013-01-30 21:03:00,
2013-01-30 15:12:00,30.0,25.0,29.43,WNW,297,20.0,-999.0,82,-99.99,,,-99.99,,2013-01-30 21:12:00,
2013-01-30 15:22:00,30.0,25.0,29.45,NW,314,20.0,-999.0,82,-99.99,,,-99.99,,2013-01-30 21:22:00,
2013-01-30 15:32:00,29.0,24.0,29.46,NW,304,18.0,-999.0,82,-99.99,,,-99.99,,2013-01-30 21:32:00,
2013-01-30 15:42:00,29.0,24.0,29.46,NW,304,18.0,-999.0,82,-99.99,,,-99.99,,2013-01-30 21:42:00,
2013-01-30 15:52:00,29.0,25.0,29.47,WNW,289,19.0,-999.0,83,-99.99,,,-99.99,,2013-01-30 21:52:00,
2013-01-30 16:02:00,29.0,24.0,29.48,WNW,299,22.0,-999.0,81,-99.99,,,-99.99,,2013-01-30 22:02:00,
2013-01-30 16:12:00,29.0,24.0,29.48,WNW,299,22.0,-999.0,81,-99.99,,,-99.99,,2013-01-30 22:12:00,
2013-01-30 16:22:00,29.0,24.0,29.49,NW,306,18.0,-999.0,80,-99.99,,,-99.99,,2013-01-30 22:22:00,
2013-01-30 16:32:00,29.0,24.0,29.50,NW,313,21.0,-999.0,81,-99.99,,,-99.99,,2013-01-30 22:32:00,
2013-01-30 16:42:00,29.0,24.0,29.50,NW,313,21.0,-999.0,81,-99.99,,,-99.99,,2013-01-30 22:42:00,
2013-01-30 16:53:00,28.0,23.0,29.51,NW,311,18.0,-999.0,81,-99.99,,,-99.99,,2013-01-30 22:53:00,
2013-01-30 17:02:00,27.0,22.0,29.53,NW,309,19.0,-999.0,80,-99.99,,,-99.99,,2013-01-30 23:02:00,
2013-01-30 17:12:00,27.0,22.0,29.53,NW,309,19.0,-999.0,80,-99.99,,,-99.99,,2013-01-30 23:12:00,
2013-01-30 17:22:00,27.0,21.0,29.54,WNW,301,22.0,-999.0,79,-99.99,,,-99.99,,2013-01-30 23:22:00,
2013-01-30 17:32:00,27.0,22.0,29.55,WNW,301,19.0,-999.0,81,-99.99,,,-99.99,,2013-01-30 23:32:00,
2013-01-30 17:42:00,27.0,22.0,29.55,WNW,301,19.0,-999.0,81,-99.99,,,-99.99,,2013-01-30 23:42:00,
2013-01-30 17:52:00,27.0,22.0,29.55,WNW,301,19.0,-999.0,81,-99.99,,,-99.99,,2013-01-30 23:52:00,
2013-01-30 18:02:00,26.0,21.0,29.58,WNW,290,15.0,-999.0,82,-99.99,,,-99.99,,2013-01-31 00:02:00,
2013-01-30 18:11:00,26.0,21.0,29.58,WNW,290,15.0,-999.0,82,-99.99,,,-99.99,,2013-01-31 00:11:00,
2013-01-30 18:22:00,26.0,20.0,29.59,WNW,294,20.0,-999.0,79,-99.99,,,-99.99,,2013-01-31 00:22:00,
2013-01-30 18:32:00,26.0,20.0,29.60,WNW,301,24.0,-999.0,78,-99.99,,,-99.99,,2013-01-31 00:32:00,
2013-01-30 18:42:00,26.0,20.0,29.60,WNW,301,24.0,-999.0,78,-99.99,,,-99.99,,2013-01-31 00:42:00,
2013-01-30 18:53:00,26.0,20.0,29.61,WNW,297,20.0,-999.0,78,-99.99,,,-99.99,,2013-01-31 00:53:00,
2013-01-30 19:02:00,26.0,21.0,29.62,NW,309,18.0,-999.0,80,-99.99,,,-99.99,,2013-01-31 01:02:00,
2013-01-30 19:11:00,26.0,21.0,29.62,NW,309,18.0,-999.0,80,-99.99,,,-99.99,,2013-01-31 01:11:00,
2013-01-30 19:21:00,26.0,19.0,29.63,NW,319,21.0,-999.0,76,-99.99,,,-99.99,,2013-01-31 01:21:00,
2013-01-30 19:31:00,26.0,19.0,29.63,WNW,301,26.0,-999.0,75,-99.99,,,-99.99,,2013-01-31 01:31:00,
2013-01-30 19:42:00,26.0,19.0,29.63,WNW,301,26.0,-999.0,75,-99.99,,,-99.99,,2013-01-31 01:42:00,
2013-01-30 19:52:00,26.0,20.0,29.64,NW,308,21.0,-999.0,79,-99.99,,,-99.99,,2013-01-31 01:52:00,
2013-01-30 20:01:00,26.0,20.0,29.65,NW,310,19.0,-999.0,78,-99.99,,,-99.99,,2013-01-31 02:01:00,
2013-01-30 20:11:00,26.0,20.0,29.65,NW,310,19.0,-999.0,78,-99.99,,,-99.99,,2013-01-31 02:11:00,
2013-01-30 20:21:00,26.0,20.0,29.66,WNW,291,22.0,-999.0,77,-99.99,,,-99.99,,2013-01-31 02:21:00,
2013-01-30 20:32:00,26.0,20.0,29.67,WNW,296,18.0,-999.0,78,-99.99,,,-99.99,,2013-01-31 02:32:00,
2013-01-30 20:41:00,26.0,20.0,29.67,WNW,296,18.0,-999.0,78,-99.99,,,-99.99,,2013-01-31 02:41:00,
2013-01-30 20:52:00,26.0,20.0,29.67,WNW,296,18.0,-999.0,78,-99.99,,,-99.99,,2013-01-31 02:52:00,
2013-01-30 21:02:00,26.0,19.0,29.69,WNW,291,20.0,-999.0,74,-99.99,,,-99.99,,2013-01-31 03:02:00,
2013-01-30 21:11:00,26.0,19.0,29.69,WNW,291,20.0,-999.0,74,-99.99,,,-99.99,,2013-01-31 03:11:00,
2013-01-30 21:21:00,26.0,19.0,29.70,WNW,299,13.0,-999.0,76,-99.99,,,-99.99,,2013-01-31 03:21:00,
2013-01-30 21:32:00,26.0,19.0,29.71,WNW,299,16.0,-999.0,74,-99.99,,,-99.99,,2013-01-31 03:32:00,
2013-01-30 21:41:00,26.0,19.0,29.71,WNW,299,16.0,-999.0,74,-99.99,,,-99.99,,2013-01-31 03:41:00,
2013-01-30 21:52:00,25.0,19.0,29.72,WNW,297,16.0,-999.0,76,-99.99,,,-99.99,,2013-01-31 03:52:00,
2013-01-30 22:02:00,25.0,19.0,29.73,WNW,285,19.0,-999.0,76,-99.99,,,-99.99,,2013-01-31 04:02:00,
2013-01-30 22:11:00,25.0,19.0,29.73,WNW,285,19.0,-999.0,76,-99.99,,,-99.99,,2013-01-31 04:11:00,
2013-01-30 22:22:00,24.0,18.0,29.74,NW,308,20.0,-999.0,79,-99.99,,,-99.99,,2013-01-31 04:22:00,
2013-01-30 22:31:00,24.0,18.0,29.74,NW,308,15.0,-999.0,76,-99.99,,,-99.99,,2013-01-31 04:31:00,
2013-01-30 22:41:00,24.0,18.0,29.74,NW,308,15.0,-999.0,76,-99.99,,,-99.99,,2013-01-31 04:41:00,
2013-01-30 22:52:00,24.0,18.0,29.75,WNW,301,15.0,-999.0,76,-99.99,,,-99.99,,2013-01-31 04:52:00,
2013-01-30 23:03:00,24.0,15.0,29.76,WNW,293,17.0,-999.0,68,-99.99,,,-99.99,,2013-01-31 05:03:00,
2013-01-30 23:11:00,24.0,15.0,29.76,WNW,293,17.0,-999.0,68,-99.99,,,-99.99,,2013-01-31 05:11:00,
2013-01-30 23:22:00,24.0,16.0,29.76,WNW,300,15.0,-999.0,71,-99.99,,,-99.99,,2013-01-31 05:22:00,
2013-01-30 23:31:00,24.0,16.0,29.76,WNW,300,15.0,-999.0,71,-99.99,,,-99.99,,2013-01-31 05:31:00,
2013-01-30 23:41:00,24.0,17.0,29.78,West,281,15.0,-999.0,75,-99.99,,,-99.99,,2013-01-31 05:41:00,
2013-01-30 23:52:00,24.0,17.0,29.78,West,281,15.0,-999.0,75,-99.99,,,-99.99,,2013-01-31 05:52:00,